Home   Weather   Hanoi   Past weeks

Flag for Vietnam Past Weather in Hanoi, Vietnam — Yesterday and Last 2 Weeks

81 °F


Feels Like: 88 °F
Forecast: 79 / 89 °F
Wind: 6 mph from Northeast

Location: Ha Noi Airport

Current Time: Oct 22, 2016 at 4:58:42 AM

Latest Report: Oct 22, 2016 at 4:30 AM

Visibility: 3 mi

Pressure: 29.71 "Hg

Humidity: 94%

Dew Point: 79 °F

Location of HanoiLocation

Past Weather in Hanoi — Graph


Hanoi Temperature Yesterday

Maximum temperature yesterday: 91 °F (at 1:00 PM)
Minimum temperature yesterday: 75 °F (at 3:00 AM)
Average temperature yesterday: 83 °F

High & Low Weather Summary for the Past Weeks

High93 °F (Oct 7, 1:00 PM)100% (Oct 7, 6:00 AM)30.01 "Hg (Oct 7, 6:00 AM)
Low72 °F (Oct 13, 7:30 AM)34% (Oct 7, 4:00 PM)29.59 "Hg (Oct 19, 4:30 AM)
Average83 °F66%29.80 "Hg
* Reported Oct 7 3:00 AM — Oct 22 3:30 AM, Hanoi, Weather by CustomWeather, © 2016

Note: Actual official high and low records may vary slightly from our data, if they occured in-between our weather recording intervals... More about our weather records


Hanoi Weather History for the Previous 24 Hours

Scroll right to see more
Time TempWeatherWind HumidityBarometerVisibility
3:30 AM
Sat, Oct 22
81 °FFog.8 mph94%29.68 "Hg2 mi
3:00 AM81 °FFog.7 mph94%29.68 "Hg2 mi
2:30 AM81 °FFog.7 mph89%29.68 "Hg2 mi
2:00 AM79 °FFog.6 mph100%29.71 "Hg2 mi
1:30 AM81 °FFog.5 mph94%29.71 "Hg2 mi
1:00 AM81 °FFog.6 mph94%29.71 "Hg2 mi
12:30 AM81 °FFog.6 mph89%29.71 "Hg2 mi
12:00 AM81 °FFog.6 mph89%29.71 "Hg2 mi
11:30 PM
Fri, Oct 21
81 °FFog.7 mph89%29.71 "Hg2 mi
11:00 PM82 °FFog.6 mph79%29.71 "Hg2 mi
10:30 PM82 °FFog.6 mph74%29.71 "Hg2 mi
10:00 PM84 °FClear.3 mph70%29.71 "Hg3 mi
9:30 PM82 °FClear.5 mph79%29.71 "Hg4 mi
9:00 PM82 °FClear.2 mph84%29.68 "Hg4 mi
8:00 PM86 °FClear.2 mph59%29.65 "Hg6 mi
7:00 PM84 °FClear.1 mph66%29.62 "Hg5 mi
6:30 PM86 °FClear.No wind59%29.59 "Hg5 mi
6:00 PM88 °FClear.2 mph55%29.59 "Hg5 mi
5:30 PM88 °FClear.3 mph55%29.59 "Hg6 mi
5:00 PM90 °FPassing clouds.3 mph52%29.59 "HgN/A
4:30 PM90 °FPassing clouds.6 mph49%29.59 "HgN/A
4:00 PM91 °FPassing clouds.6 mph46%29.59 "HgN/A
3:30 PM91 °FPassing clouds.7 mph49%29.59 "HgN/A
3:00 PM91 °FPassing clouds.8 mph49%29.59 "HgN/A
2:30 PM90 °FSunny.9 mph49%29.59 "Hg10 mi
2:00 PM91 °FPassing clouds.9 mph49%29.59 "HgN/A
1:30 PM91 °FPassing clouds.7 mph46%29.62 "HgN/A
1:00 PM91 °FPassing clouds.8 mph49%29.62 "HgN/A
12:30 PM90 °FPassing clouds.7 mph49%29.65 "HgN/A
12:00 PM90 °FSunny.5 mph52%29.68 "Hg10 mi
11:30 AM88 °FPassing clouds.5 mph55%29.68 "HgN/A
11:00 AM88 °FSunny.3 mph55%29.71 "Hg10 mi
10:30 AM86 °FPassing clouds.5 mph59%29.71 "HgN/A
10:00 AM84 °FPassing clouds.5 mph62%29.74 "HgN/A
9:30 AM84 °FPassing clouds.3 mph58%29.74 "HgN/A
9:00 AM82 °FSunny.2 mph66%29.74 "Hg10 mi
8:30 AM82 °FClear.3 mph74%29.74 "Hg5 mi
8:00 AM81 °FPassing clouds.5 mph79%29.74 "HgN/A
7:30 AM79 °FPassing clouds.5 mph84%29.71 "HgN/A
7:00 AM77 °FPassing clouds.5 mph89%29.71 "HgN/A
6:30 AM77 °FSunny.5 mph83%29.71 "Hg10 mi
6:00 AM77 °FSunny.6 mph89%29.71 "Hg10 mi
5:30 AM77 °FClear.5 mph89%29.68 "Hg10 mi
5:00 AM77 °FClear.5 mph89%29.68 "Hg10 mi
4:30 AM77 °FClear.6 mph89%29.68 "Hg10 mi
4:00 AM77 °FClear.6 mph89%29.68 "Hg10 mi
Weather by CustomWeather, © 2016

See weather overviewHow to use our weather pages